Weather History for San Sebastian, Spain

Change the Weather History Date:

Sunday, February 16, 2014

  Actual Average Record
Temperature  
Mean Temperature 50 °F -  
Max Temperature 56 °F 56 °F 75 °F (2007)
Min Temperature 43 °F 43 °F 32 °F (2009)
Degree Days  
Heating Degree Days 16    
Moisture  
Dew Point 41 °F    
Average Humidity 74    
Maximum Humidity 87    
Minimum Humidity 41    
Precipitation  
Precipitation 0.00 in - - ()
Sea Level Pressure  
Sea Level Pressure 30.03 in    
Wind  
Wind Speed 3 mph ()    
Max Wind Speed 6 mph    
Max Gust Speed -    
Visibility 6.9 miles    
Events      
Averages and records for this station are not official NWS values.
T = Trace of Precipitation, MM = Missing Value Source: Averaged Metar Reports

Daily Weather History Graph

Daily Weather History Graph

Search for Another Location

Airport:

Trip Planner

Search our weather history database for the weather conditions in past years. The results will help you decide how hot, cold, wet, or windy it might be!

Date:

Astronomy

Feb. 16, 2014 Rise Set
Actual Time 8:04 AM CET 6:38 PM CET
Civil Twilight 7:34 AM CET 7:08 PM CET
Nautical Twilight 7:01 AM CET 7:41 PM CET
Astronomical Twilight 6:28 AM CET 8:14 PM CET
Moon 8:26 PM CET (2/16) 8:22 AM CET (2/16)
Length of Visible Light 11h 33m
Length of Day
10h 34m
Full, 98% of the Moon is Illuminated
Feb 16
Full
Feb 22
Last Quarter
Mar 1
New
Mar 8
First Quarter
Mar 16
Full

Hourly Weather History & Observations

Time (CET) Temp. Windchill Dew Point Humidity Pressure Visibility Wind Dir Wind Speed Gust Speed Precip Events Conditions
5:30 AM 46.4 °F - 42.8 °F 87% 30.01 in 6.2 mi Variable 2.3 mph - N/A   Scattered Clouds
6:00 AM 46.4 °F 45.2 °F 42.8 °F 87% 30.04 in 6.2 mi SSE 3.5 mph - N/A   Scattered Clouds
6:30 AM 46.4 °F - 42.8 °F 87% 30.04 in 6.2 mi Variable 2.3 mph - N/A   Scattered Clouds
7:00 AM 46 °F - 43 °F 86% 30.04 in 9 mi South 2.3 mph - -   Mostly Cloudy
7:00 AM 46.4 °F - 42.8 °F 87% 30.04 in 6.2 mi Variable 2.3 mph - N/A   Mostly Cloudy
7:30 AM 46.4 °F 45.2 °F 42.8 °F 87% 30.04 in 6.2 mi South 3.5 mph - N/A   Mostly Cloudy
8:00 AM 46.4 °F 43.5 °F 42.8 °F 87% 30.04 in 6.2 mi South 5.8 mph - N/A   Mostly Cloudy
8:30 AM 46.4 °F 45.2 °F 42.8 °F 87% 30.04 in 6.2 mi South 3.5 mph - N/A   Mostly Cloudy
9:00 AM 46.4 °F 44.3 °F 42.8 °F 87% 30.06 in 6.2 mi SSW 4.6 mph - N/A   Mostly Cloudy
9:30 AM 46.4 °F 44.3 °F 42.8 °F 87% 30.06 in 6.2 mi SW 4.6 mph - N/A   Mostly Cloudy
10:00 AM 48 °F - 43 °F 75% 30.07 in 9 mi Calm Calm - -   Mostly Cloudy
10:00 AM 48.2 °F - 42.8 °F 82% 30.06 in 6.2 mi Calm Calm - N/A   Mostly Cloudy
10:30 AM 48.2 °F - 42.8 °F 82% 30.06 in 6.2 mi SSW 4.6 mph - N/A   Mostly Cloudy
11:00 AM 50.0 °F - 42.8 °F 76% 30.06 in 6.2 mi Variable 2.3 mph - N/A   Mostly Cloudy
11:30 AM 51.8 °F - 42.8 °F 71% 30.06 in 6.2 mi South 4.6 mph - N/A   Mostly Cloudy
12:00 PM 51.8 °F - 41.0 °F 67% 30.06 in 6.2 mi SW 5.8 mph - N/A   Mostly Cloudy
12:30 PM 51.8 °F - 41.0 °F 67% 30.06 in 6.2 mi Variable 3.5 mph - N/A   Mostly Cloudy
1:00 PM 54 °F - 41 °F 51% 30.08 in 12 mi West 5.8 mph - -   Mostly Cloudy
1:00 PM 51.8 °F - 39.2 °F 62% 30.06 in 6.2 mi Variable 3.5 mph - N/A   Mostly Cloudy
1:30 PM 51.8 °F - 41.0 °F 67% 30.06 in 6.2 mi Variable 3.5 mph - N/A   Scattered Clouds
2:00 PM 51.8 °F - 39.2 °F 62% 30.04 in 6.2 mi Variable 2.3 mph - N/A   Scattered Clouds
2:30 PM 53.6 °F - 39.2 °F 58% 30.04 in 6.2 mi Variable 3.5 mph - N/A   Scattered Clouds
3:00 PM 51.8 °F - 39.2 °F 62% 30.04 in 6.2 mi Variable 4.6 mph - N/A   Scattered Clouds
3:30 PM 53.6 °F - 39.2 °F 58% 30.01 in 6.2 mi Variable 3.5 mph - N/A   Partly Cloudy
4:00 PM 56 °F - 39 °F 41% 30.01 in 12 mi North 5.8 mph - -   Scattered Clouds
4:00 PM 51.8 °F - 41.0 °F 67% 30.01 in 6.2 mi North 4.6 mph - N/A   Partly Cloudy
4:30 PM 51.8 °F - 41.0 °F 67% 30.01 in 6.2 mi NNW 5.8 mph - N/A   Partly Cloudy
5:00 PM 51.8 °F - 41.0 °F 67% 29.98 in 6.2 mi North 4.6 mph - N/A   Partly Cloudy
5:30 PM 51.8 °F - 41.0 °F 67% 29.98 in 6.2 mi Variable 2.3 mph - N/A   Partly Cloudy
6:00 PM 50.0 °F - 41.0 °F 71% 29.98 in 6.2 mi NE 3.5 mph - N/A   Partly Cloudy
6:30 PM 50.0 °F - 41.0 °F 71% 29.98 in - ENE 3.5 mph - N/A   Clear
7:00 PM 50 °F - 41 °F 63% 29.99 in 12 mi ENE 3.5 mph - -  
7:00 PM 48.2 °F - 41.0 °F 76% 29.98 in - ENE 3.5 mph - N/A   Clear
7:30 PM 48.2 °F - 41.0 °F 76% 29.98 in - Variable 1.2 mph - N/A   Clear
8:00 PM 48.2 °F - 41.0 °F 76% 29.98 in - Calm Calm - N/A   Clear
8:30 PM 46.4 °F - 41.0 °F 81% 29.98 in - Calm Calm - N/A   Clear
9:00 PM 44.6 °F - 39.2 °F 81% 29.98 in - Calm Calm - N/A   Clear
9:30 PM 44.6 °F - 39.2 °F 81% 29.98 in - Variable 2.3 mph - N/A   Clear